Hourly Data Report for July 02, 2022

WINNIPEG THE FORKS
MANITOBA
Current Station Operator: ECCC - MSC

49°53'18.008" N
97°07'46.007" W
230.00 m
5023262
71579
XWN

Download Data

Hourly Data (July 2022)
Hourly Data Report for July 2, 2022
TIME
LST
Temp Definition
°C
Dew Point Definition
°C
Rel Hum Definition
%
Precip. Amount Definition
mm

Wind Dir Definition
10's deg

Wind Spd Definition
km/h
Visibility Definition
km
Stn Press Definition
kPa
Hmdx Definition


Wind Chill Definition


Weather Definition


00:00 14.5 5.7 55 0.0 6 2   98.93     LegendNANA
01:00 14.1 5.4 56 0.0 1 2   98.96     LegendNANA
02:00 14.0 5.3 56 0.0   0   98.96     LegendNANA
03:00 14.9 5.1 52 0.0 27 3   98.97     LegendNANA
04:00 14.3 4.3 51 0.0 33 3   99.00     LegendNANA
05:00 14.2 3.2 47 0.0 33 5   99.05     LegendNANA
06:00 14.2 4.5 52 0.0 34 2   99.09     LegendNANA
07:00 14.4 6.2 58 0.0 33 5   99.13     LegendNANA
08:00 14.6 5.4 54 0.0 34 3   99.19     LegendNANA
09:00 15.5 5.1 50 0.0 35 4   99.21     LegendNANA
10:00 17.9 5.8 45 0.0 2 3   99.19     LegendNANA
11:00 19.0 4.0 37 0.0 31 5   99.19     LegendNANA
12:00 19.4 3.9 36 0.0 35 5   99.15     LegendNANA
13:00 20.4 3.1 32 0.0 35 3   99.10     LegendNANA
14:00 20.9 4.7 34 0.0 36 4   99.09     LegendNANA
15:00 21.6 5.1 34 0.0 1 6   99.05     LegendNANA
16:00 22.2 6.3 36 0.0 18 3   99.02     LegendNANA
17:00 22.2 3.6 30 0.0 30 6   98.99     LegendNANA
18:00 21.6 3.4 30 0.0 33 10   98.95     LegendNANA
19:00 21.2 3.2 31 0.0 29 6   98.96     LegendNANA
20:00 19.7 2.1 31 0.0 34 5   98.94     LegendNANA
21:00 18.8 3.7 37 0.0 2 2   98.94     LegendNANA
22:00 17.6 6.1 47 0.0 2 2   98.96     LegendNANA
23:00 17.6 6.2 47 0.0 6 2   99.00     LegendNANA

Notes on Data Quality.

Legend

  • E = Estimated
  • M = Missing
  • NA = Not Available*
  • [empty] = Indicates an unobserved value
Date modified: